Total_Precipitation_Accumulation
0.00 0.00 0.00 0.01 0.01 0.01 0.01 0.03 0.08 0.13 0.08 0.08 0.14 0.19 0.20 0.19 0.21 0.22 0.21 0.15 0.18 0.28 0.44 0.64 0.93 1.28 1.66 2.30 2.98 3.19 2.78 2.35 1.95 1.67 1.41 1.17 0.97 0.91 0.87 0.73 0.69 0.69 0.71 0.73
0.00 0.01 0.01 0.01 0.01 0.03 0.03 0.05 0.09 0.13 0.07 0.08 0.11 0.20 0.32 0.33 0.31 0.27 0.22 0.18 0.25 0.42 0.64 0.94 1.32 1.56 1.81 2.23 2.70 2.68 2.23 1.79 1.32 1.02 0.92 0.82 0.69 0.60 0.51 0.48 0.51 0.49 0.55 0.63
0.01 0.03 0.02 0.01 0.01 0.04 0.04 0.04 0.10 0.12 0.05 0.08 0.11 0.26 0.45 0.48 0.35 0.23 0.16 0.14 0.19 0.36 0.68 1.14 1.64 1.92 2.03 2.05 1.94 1.78 1.35 0.88 0.65 0.49 0.47 0.42 0.41 0.40 0.33 0.29 0.32 0.32 0.35 0.39
0.01 0.01 0.01 0.01 0.02 0.02 0.04 0.03 0.03 0.03 0.03 0.10 0.17 0.40 0.59 0.54 0.39 0.28 0.19 0.16 0.19 0.34 0.70 1.24 1.58 1.63 1.63 1.52 1.17 0.89 0.69 0.45 0.32 0.29 0.32 0.32 0.30 0.30 0.26 0.23 0.25 0.23 0.24 0.27
0.02 0.01 0.01 0.01 0.02 0.02 0.02 0.02 0.02 0.03 0.04 0.10 0.23 0.45 0.68 0.56 0.47 0.35 0.23 0.18 0.23 0.32 0.52 0.76 0.86 0.93 0.94 0.83 0.67 0.53 0.45 0.35 0.34 0.35 0.37 0.39 0.28 0.23 0.21 0.20 0.20 0.20 0.23 0.26
0.03 0.03 0.02 0.01 0.01 0.02 0.02 0.02 0.04 0.09 0.11 0.25 0.35 0.43 0.71 0.66 0.49 0.29 0.20 0.17 0.16 0.23 0.36 0.48 0.47 0.44 0.42 0.34 0.35 0.36 0.40 0.44 0.42 0.35 0.31 0.31 0.27 0.23 0.20 0.18 0.18 0.19 0.22 0.26
0.08 0.05 0.04 0.03 0.03 0.03 0.03 0.03 0.11 0.31 0.47 0.52 0.37 0.40 0.69 0.50 0.32 0.21 0.15 0.12 0.17 0.28 0.35 0.39 0.43 0.41 0.32 0.24 0.25 0.24 0.22 0.25 0.29 0.28 0.27 0.26 0.27 0.24 0.22 0.20 0.16 0.17 0.19 0.23
0.12 0.10 0.05 0.04 0.03 0.03 0.04 0.04 0.07 0.16 0.15 0.21 0.24 0.61 0.76 0.35 0.24 0.15 0.09 0.09 0.15 0.21 0.25 0.25 0.26 0.24 0.19 0.14 0.10 0.09 0.10 0.11 0.12 0.13 0.16 0.18 0.22 0.20 0.20 0.23 0.19 0.17 0.20 0.24
0.03 0.02 0.02 0.02 0.03 0.03 0.03 0.03 0.03 0.03 0.04 0.10 0.26 0.50 0.45 0.26 0.17 0.10 0.06 0.05 0.07 0.09 0.09 0.09 0.08 0.07 0.06 0.05 0.04 0.04 0.05 0.05 0.05 0.06 0.09 0.12 0.16 0.18 0.18 0.20 0.19 0.19 0.24 0.26
0.00 0.01 0.01 0.01 0.02 0.03 0.04 0.03 0.02 0.02 0.02 0.04 0.16 0.43 0.49 0.27 0.17 0.08 0.04 0.03 0.03 0.03 0.03 0.03 0.03 0.03 0.02 0.02 0.02 0.02 0.02 0.03 0.03 0.04 0.05 0.07 0.09 0.13 0.15 0.15 0.18 0.21 0.21 0.22
0.00 0.00 0.00 0.01 0.02 0.02 0.02 0.01 0.02 0.02 0.02 0.02 0.06 0.20 0.17 0.11 0.05 0.02 0.01 0.01 0.01 0.01 0.01 0.01 0.01 0.01 0.01 0.01 0.01 0.01 0.02 0.02 0.02 0.02 0.03 0.04 0.06 0.08 0.11 0.14 0.16 0.18 0.18 0.20
0.00 0.00 0.00 0.02 0.03 0.01 0.01 0.01 0.01 0.01 0.02 0.02 0.03 0.09 0.07 0.05 0.02 0.01 0.01 0.00 0.00 0.00 0.00 0.00 0.00 0.00 0.00 0.01 0.01 0.01 0.02 0.02 0.02 0.02 0.02 0.03 0.05 0.06 0.07 0.09 0.13 0.16 0.18 0.18
0.00 0.00 0.01 0.04 0.06 0.02 0.01 0.01 0.02 0.01 0.01 0.02 0.08 0.14 0.05 0.02 0.01 0.00 0.00 0.00 0.00 0.00 0.00 0.00 0.00 0.00 0.00 0.01 0.01 0.01 0.01 0.01 0.01 0.01 0.02 0.02 0.02 0.04 0.05 0.07 0.10 0.13 0.16 0.18
0.00 0.00 0.00 0.03 0.03 0.01 0.01 0.02 0.02 0.02 0.02 0.02 0.06 0.12 0.04 0.01 0.00 0.00 0.00 0.00 0.00 0.00 0.00 0.00 0.00 0.00 0.00 0.00 0.00 0.00 0.00 0.00 0.00 0.01 0.01 0.02 0.02 0.03 0.05 0.06 0.09 0.12 0.15 0.17
0.00 0.00 0.00 0.00 0.00 0.01 0.02 0.04 0.03 0.02 0.01 0.04 0.03 0.03 0.02 0.00 0.00 0.00 0.00 0.00 0.00 0.00 0.00 0.00 0.00 0.00 0.00 0.00 0.00 0.00 0.01 0.01 0.02 0.03 0.04 0.04 0.04 0.04 0.05 0.06 0.09 0.10 0.11 0.12
0.00 0.00 0.00 0.00 0.01 0.02 0.03 0.05 0.03 0.01 0.00 0.00 0.00 0.00 0.00 0.00 0.01 0.01 0.01 0.02 0.01 0.01 0.02 0.02 0.02 0.02 0.03 0.03 0.03 0.03 0.04 0.04 0.05 0.08 0.10 0.08 0.09 0.09 0.09 0.10 0.11 0.11 0.13 0.16
0.00 0.00 0.00 0.00 0.00 0.01 0.04 0.04 0.01 0.00 0.00 0.00 0.00 0.01 0.01 0.02 0.03 0.05 0.07 0.08 0.08 0.08 0.08 0.07 0.07 0.05 0.04 0.03 0.03 0.03 0.03 0.03 0.04 0.07 0.12 0.13 0.13 0.13 0.10 0.10 0.12 0.14 0.18 0.22
0.00 0.00 0.00 0.00 0.00 0.03 0.04 0.01 0.01 0.01 0.01 0.01 0.03 0.05 0.08 0.12 0.14 0.17 0.22 0.22 0.16 0.10 0.07 0.04 0.03 0.01 0.01 0.01 0.01 0.02 0.02 0.03 0.03 0.05 0.12 0.17 0.18 0.17 0.15 0.17 0.20 0.22 0.25 0.28
0.00 0.00 0.00 0.00 0.00 0.02 0.01 0.01 0.01 0.02 0.03 0.05 0.10 0.17 0.22 0.26 0.26 0.21 0.16 0.12 0.08 0.04 0.02 0.01 0.01 0.01 0.01 0.01 0.02 0.03 0.04 0.04 0.06 0.08 0.13 0.18 0.25 0.26 0.25 0.27 0.31 0.34 0.37 0.35
0.00 0.00 0.00 0.00 0.01 0.03 0.01 0.02 0.05 0.06 0.13 0.18 0.21 0.21 0.16 0.12 0.11 0.08 0.03 0.01 0.01 0.01 0.00 0.01 0.01 0.01 0.02 0.03 0.04 0.05 0.07 0.09 0.12 0.13 0.17 0.23 0.31 0.36 0.35 0.36 0.40 0.42 0.46 0.44
0.00 0.00 0.00 0.00 0.01 0.02 0.03 0.05 0.10 0.17 0.22 0.18 0.13 0.10 0.08 0.07 0.06 0.03 0.01 0.01 0.01 0.00 0.00 0.01 0.01 0.03 0.05 0.08 0.12 0.16 0.18 0.21 0.21 0.22 0.25 0.30 0.36 0.42 0.42 0.44 0.46 0.49 0.49 0.50
0.00 0.00 0.00 0.00 0.04 0.07 0.06 0.06 0.10 0.10 0.08 0.06 0.05 0.04 0.03 0.02 0.01 0.01 0.00 0.01 0.01 0.00 0.00 0.01 0.03 0.03 0.05 0.11 0.18 0.24 0.26 0.26 0.28 0.32 0.33 0.36 0.42 0.44 0.43 0.54 0.60 0.65 0.66 0.63
0.00 0.00 0.01 0.01 0.04 0.03 0.02 0.02 0.03 0.03 0.03 0.03 0.02 0.02 0.01 0.01 0.00 0.00 0.00 0.00 0.00 0.00 0.00 0.01 0.02 0.04 0.06 0.10 0.16 0.22 0.24 0.26 0.28 0.31 0.33 0.38 0.47 0.53 0.57 0.63 0.67 0.76 0.80 0.77
0.00 0.00 0.01 0.04 0.04 0.04 0.02 0.01 0.01 0.01 0.01 0.01 0.00 0.00 0.00 0.00 0.00 0.00 0.00 0.00 0.00 0.00 0.00 0.01 0.03 0.06 0.07 0.09 0.12 0.17 0.24 0.31 0.35 0.36 0.36 0.40 0.47 0.54 0.66 0.76 0.76 0.78 0.81 0.83
0.00 0.00 0.00 0.02 0.03 0.03 0.01 0.00 0.00 0.00 0.00 0.00 0.00 0.00 0.00 0.00 0.00 0.00 0.00 0.00 0.00 0.01 0.02 0.04 0.08 0.10 0.10 0.10 0.11 0.13 0.20 0.32 0.39 0.39 0.38 0.42 0.48 0.55 0.68 0.81 0.84 0.75 0.75 0.78
0.00 0.00 0.00 0.00 0.00 0.00 0.00 0.00 0.00 0.00 0.00 0.00 0.00 0.00 0.00 0.00 0.00 0.00 0.00 0.00 0.01 0.02 0.06 0.10 0.13 0.14 0.13 0.13 0.14 0.15 0.21 0.33 0.42 0.43 0.40 0.43 0.48 0.56 0.66 0.79 0.84 0.69 0.56 0.54